THOR ABLESTAR DEB, 333

Orbit data source: Space-Track

THOR ABLESTAR DEB, 333 is space debris in LEO originally from a launch on Thu, 29 Jun 1961 UTC launched from the Air Force Eastern Test Range (AFETR). Debris objects in space refer to the collection of defunct objects orbiting the Earth. Examples of debris include non-operational satellites, rocket bodies, and fragments generated from explosions, collisions, or faulty payload assembly.

Loading next visibility...
Identifier
333, 1961-015DK
Orbit
LEO
Country
Flag of USUS
Related business
Manufacturer
Unknown
Mission
Spacecraft
Bus & Motor
Unknown
Mass
Unknown
Launch date (UTC)
1961-06-29 (65 years ago)
Launch vehicle
Unknown
Launch site
Air Force Eastern Test Range (AFETR)
Object type
Payload
Rocket body
Debris
Shape & HBR
Unknown shape, 0.1 m
Radar Cross Section
Small (<0.1 m²)

Expand to show TLE details & history
Last TLE update: 6 hours ago

TLE from 6 hours ago
0 THOR ABLESTAR DEB
1   333U 61015DK  26121.82210186  .00007963  00000-0  93701-3 0  9990
2   333  66.6992 277.6524 0040343 314.7623  45.0222 14.84740660381931
Epoch: 2026-05-01T19:43Z
TLE epoch observation values (Epoch: 2026-05-01T19:43:49.600Z)
Latitude
-0.00006°
Longitude
121.94686°
Altitude
596.675 km
Speed
7.573 km/s
True Right ascension
18h 30m 36s
True Declination
0° 00' 00"
Sunlit
Object was in full shadow at epoch
Visualization orbit readout
Latitude
Unknown
Longitude
Unknown
Altitude
Unknown
Speed
Unknown
Apparent Right ascension
Unknown
Apparent Declination
Unknown
Sunlit
N/A
Visualization observer readout
Local Sidereal Time
09:28:56
Azimuth
Unknown
Elevation
Unknown
Doppler factor
Unknown
Orbital elements
Apogee altitude
640.937 km
Perigee altitude
584.53 km
Semi-major axis
6,990.871 km
Eccentricity
0.00403
Inclination
66.6992°
RAAN
277.6524°
Arg. of periapsis
314.7623°
True anomaly
45.35039°
Mean anomaly
45.0222°
Eccentric anomaly
45.18618°
Mean motion
3.71318 °/min
Orbital period
96.95 mins
BSTAR
0.00093701
Loading maneuver chart data...
Computing Atmospheric mass density...
Loading historical data...
Loading historical data...
Loading historical data...
Loading historical data...
Loading historical data...
Loading historical data...
Loading historical data...

Documentation

Showing up to 5 results
|